This is the latest recevied weather packets stored in our database for station/object DC4AT. If no packets are shown the sender has not sent any weather packets the latest 10 day(s).
| Time | Temp. | Humidity | Pressure | Rain* | Wind** | Luminosity | Snow |
|---|---|---|---|---|---|---|---|
| 1777841618 | 17.78° C | 53% | 1012.3 hPa | 0 mm | - | 0 W/m² | - |
| 1777841019 | 18.33° C | 53% | 1012.1 hPa | 0 mm | - | 0 W/m² | - |
| 1777840419 | 18.33° C | 52% | 1012 hPa | 0 mm | - | 0 W/m² | - |
| 1777839819 | 18.33° C | 51% | 1012.2 hPa | 0 mm | - | 0 W/m² | - |
| 1777839219 | 18.33° C | 50% | 1012.1 hPa | 0 mm | - | 0 W/m² | - |
| 1777838619 | 18.33° C | 50% | 1012.1 hPa | 0 mm | - | 0 W/m² | - |
| 1777838019 | 18.89° C | 49% | 1012.1 hPa | 0 mm | - | 0 W/m² | - |
| 1777837419 | 18.89° C | 51% | 1012 hPa | 0 mm | - | 0 W/m² | - |
| 1777836819 | 18.89° C | 50% | 1011.7 hPa | 0 mm | - | 0 W/m² | - |
| 1777836219 | 18.89° C | 50% | 1011.6 hPa | 0 mm | - | 0 W/m² | - |
| 1777835619 | 18.89° C | 51% | 1011.3 hPa | 0 mm | - | 0 W/m² | - |
| 1777835019 | 19.44° C | 50% | 1011.2 hPa | 0 mm | - | 0 W/m² | - |
| 1777834419 | 19.44° C | 49% | 1011 hPa | 0 mm | - | 0 W/m² | - |
| 1777833819 | 19.44° C | 47% | 1011 hPa | 0 mm | - | 0 W/m² | - |
| 1777833219 | 19.44° C | 46% | 1010.9 hPa | 0 mm | - | 0 W/m² | - |
| 1777832619 | 20° C | 46% | 1010.9 hPa | 0 mm | - | 7 W/m² | - |
| 1777832019 | 20° C | 45% | 1010.8 hPa | 0 mm | - | 14 W/m² | - |
| 1777831419 | 20° C | 44% | 1010.7 hPa | 0 mm | - | 21 W/m² | - |
| 1777830819 | 20° C | 43% | 1010.6 hPa | 0 mm | - | 30 W/m² | - |
| 1777830219 | 20.56° C | 42% | 1010.7 hPa | 0 mm | - | 39 W/m² | - |
| 1777829619 | 20.56° C | 42% | 1010.6 hPa | 0 mm | - | 47 W/m² | - |
| 1777829019 | 20.56° C | 42% | 1010.6 hPa | 0 mm | - | 51 W/m² | - |
| 1777828419 | 21.11° C | 41% | 1010.6 hPa | 0 mm | - | 58 W/m² | - |
| 1777827819 | 21.11° C | 41% | 1010.5 hPa | 0 mm | - | 63 W/m² | - |
| 1777827219 | 21.11° C | 40% | 1010.6 hPa | 0 mm | - | 83 W/m² | - |
* Rain latest hour (hover to see other rain measurements)
** Current wind speed in m/s (hover to see current wind gust speed)